RH
5 5 5 6 6 7 7 7 8 8 7 7 6 6 5 5 5 5 5 5 6 6 7 7 8 8 8 9 9 9 13 22 34 45 50 50 49 45 42 42 42 44 47 52 56 60 62 62 64 65 67 74 81 84 83 79 74 74 75 73 69 66 63 61 60 59 59 58 57 58 60 67 80 92 96 99 102 103 104 104 104 102 99 100 105 107 106
5 6 6 6 6 7 7 7 7 7 6 6 5 5 5 4 4 5 5 6 6 7 8 7 8 8 8 9 9 10 10 15 25 36 44 48 50 49 48 49 51 51 55 61 66 67 67 69 68 68 72 77 79 78 78 77 74 72 70 65 62 60 59 60 61 61 60 58 61 66 71 80 92 100 102 103 103 103 103 103 102 101 99 100 103 105 107
5 5 6 6 7 7 7 7 7 6 5 5 5 5 5 5 5 6 6 7 7 7 8 8 7 8 9 9 10 11 11 13 19 28 37 45 51 53 54 55 57 59 61 65 70 70 70 73 73 71 72 75 76 75 74 73 71 67 62 60 59 57 57 60 61 65 68 72 81 91 94 99 103 102 102 102 102 103 104 103 101 100 100 100 101 101 104
6 7 7 7 7 7 7 6 6 5 5 5 5 6 6 6 6 7 7 8 8 8 8 8 8 9 9 10 11 12 13 14 17 25 32 39 47 52 56 58 59 61 64 66 67 69 69 68 70 71 70 69 69 68 67 65 62 61 57 56 57 56 59 62 65 75 85 89 97 105 107 106 105 102 102 102 103 103 102 102 102 101 100 100 100 100 101
8 8 7 7 7 6 6 6 6 6 6 6 6 6 6 6 6 8 8 8 8 9 9 9 9 10 11 12 13 14 17 19 23 30 35 40 47 51 53 57 61 60 61 63 63 63 63 62 63 63 64 66 65 63 66 66 63 65 64 60 61 63 67 73 79 86 91 90 94 101 103 103 102 101 100 100 101 100 97 96 97 98 101 101 100 100 101
7 7 6 6 6 6 7 7 7 7 7 8 7 6 7 7 6 7 8 9 11 13 13 13 12 13 15 18 22 26 28 28 31 37 39 39 47 56 57 57 60 60 59 61 63 63 62 63 67 67 68 76 79 78 84 86 82 83 82 77 78 80 83 90 94 93 94 97 99 101 102 102 102 100 99 100 101 100 98 95 93 96 103 103 100 100 101
6 7 7 7 8 8 8 9 9 9 10 10 8 7 8 8 9 10 13 15 15 14 13 16 22 30 35 37 43 50 52 52 58 63 59 49 51 68 78 74 73 77 73 70 76 84 84 83 87 89 88 93 97 97 100 102 100 99 97 95 98 98 98 103 102 99 101 104 103 102 102 103 103 102 101 101 101 101 101 100 98 98 102 103 103 102 100
7 8 9 10 10 10 10 11 11 12 13 12 11 9 10 13 17 22 23 21 20 23 27 38 53 66 70 68 71 81 87 89 93 96 93 84 78 86 97 96 95 99 94 87 90 99 101 98 100 101 100 100 101 101 102 102 101 102 101 102 106 107 106 105 102 101 104 104 102 102 103 103 102 101 100 100 101 102 103 103 102 101 101 102 102 102 103
9 11 13 13 14 14 15 16 16 18 20 21 20 16 14 21 30 36 40 40 43 51 61 76 89 95 96 94 94 99 101 101 102 102 101 103 102 101 101 100 100 102 100 97 97 99 100 100 99 99 99 100 100 100 100 101 100 101 101 102 104 107 106 105 103 104 105 103 102 102 102 104 104 102 102 101 102 102 102 102 103 104 104 103 102 102 103
13 15 16 16 19 21 23 25 27 30 33 36 37 31 26 32 43 51 60 66 70 78 88 98 104 103 101 101 100 100 101 100 101 102 101 100 101 101 99 98 98 99 98 98 98 99 100 100 100 100 100 100 101 100 99 100 101 101 101 101 101 102 103 103 104 103 101 101 102 101 102 104 104 103 102 102 103 102 102 102 102 103 103 102 102 103 102
18 19 20 23 27 29 33 37 41 44 49 52 52 47 44 49 59 69 79 89 95 101 104 104 103 102 100 100 101 101 101 100 99 100 100 100 100 101 100 99 99 100 100 100 100 100 100 100 99 100 100 97 97 97 95 96 98 99 100 100 99 98 99 101 103 102 100 101 103 103 103 102 102 102 102 102 104 104 103 104 103 103 103 102 102 102 101
24 26 29 33 37 41 47 53 58 63 67 66 64 63 64 71 80 87 96 104 108 108 106 102 100 101 100 100 101 100 100 101 100 99 99 100 99 99 99 100 101 102 102 101 101 100 100 100 101 101 100 97 98 99 97 97 99 99 100 101 99 97 99 101 102 102 101 102 102 103 103 102 102 103 102 102 105 104 104 104 103 104 105 104 102 101 101
34 39 45 52 58 63 69 76 82 85 83 78 75 76 77 82 90 94 98 106 108 106 105 104 101 100 100 99 98 99 99 99 100 100 99 99 98 96 97 99 101 101 99 97 97 98 98 99 100 100 98 97 101 104 103 102 103 102 101 101 101 100 100 101 101 101 101 102 103 104 104 104 105 106 105 105 105 104 104 105 104 103 105 104 102 103 105
52 59 65 73 83 90 93 97 100 99 94 87 84 85 86 89 95 96 96 102 106 103 101 100 97 97 98 97 96 98 100 99 100 101 101 100 100 99 99 100 100 100 99 97 98 98 97 96 98 98 95 96 100 103 103 102 101 101 101 102 102 102 102 102 103 102 102 105 106 106 106 107 108 107 105 104 104 104 104 106 105 102 103 103 102 103 104
66 74 79 87 97 104 104 104 105 104 101 97 95 98 101 103 106 105 100 102 106 102 97 96 95 96 98 99 100 100 101 102 103 104 102 100 101 102 101 102 103 102 102 101 100 99 99 98 100 100 99 100 102 102 101 100 100 100 101 101 101 102 102 102 102 101 102 105 105 104 105 105 103 102 101 102 103 103 104 106 106 104 103 103 102 103 103
76 86 92 97 103 105 102 102 105 105 105 103 102 105 108 106 108 110 107 106 107 106 103 101 101 103 105 106 106 105 105 105 105 104 104 103 103 103 102 101 101 101 100 101 100 100 101 100 100 100 100 100 100 101 100 100 100 101 101 100 101 100 99 100 100 100 101 103 102 101 102 102 100 100 100 101 102 102 101 101 101 101 100 97 96 96 96
86 95 101 104 103 101 99 101 105 107 107 106 106 108 108 106 107 111 111 108 107 107 106 104 103 106 108 108 109 110 111 109 105 102 102 102 101 101 100 99 98 98 97 98 98 98 98 98 98 97 96 94 93 94 95 96 96 96 97 98 99 99 98 98 99 100 100 101 102 101 101 102 102 101 99 99 99 97 97 98 97 97 96 95 93 93 93
90 93 99 102 100 99 99 100 102 105 106 107 107 106 105 106 109 109 107 104 102 102 103 103 102 102 102 102 103 104 105 106 105 104 105 106 104 101 100 99 99 99 99 99 99 99 98 99 98 97 97 96 95 94 94 94 95 95 96 97 98 99 99 99 99 99 99 100 100 100 99 99 98 96 92 89 88 87 88 90 90 91 95 96 95 95 96
95 90 90 95 97 98 101 100 101 103 103 103 105 102 100 103 107 105 102 102 104 105 105 104 103 103 104 104 103 102 103 103 103 104 106 108 108 105 102 102 102 101 101 101 101 101 101 101 101 101 101 101 101 101 101 100 99 99 100 100 100 101 101 101 101 100 100 100 100 99 97 94 91 88 84 81 80 81 80 78 78 80 82 84 84 84 85
102 92 83 86 91 93 95 97 98 99 100 101 101 100 99 101 103 101 101 105 108 109 109 109 110 109 106 104 103 103 104 104 102 102 102 103 104 104 103 104 104 104 104 104 103 103 103 103 103 103 102 102 102 102 102 102 102 102 102 101 101 101 102 102 101 99 98 97 95 92 88 83 81 81 79 78 78 79 77 77 78 78 77 77 76 76 75
109 96 82 79 83 83 82 85 86 89 95 99 100 101 101 102 102 101 102 105 107 106 106 108 110 110 106 100 96 93 93 93 92 90 90 90 89 89 89 91 92 94 96 98 97 96 96 96 95 94 95 95 95 95 95 95 95 96 96 96 96 96 97 97 95 93 92 91 88 85 82 78 77 77 76 74 74 73 72 73 72 71 71 70 70 69 69
108 102 92 86 87 85 86 90 93 96 100 101 99 99 98 96 96 96 97 99 99 98 97 97 98 103 106 103 99 94 90 90 89 86 85 84 82 80 78 78 78 78 80 81 82 82 81 80 79 78 78 78 78 78 78 78 78 79 79 79 80 81 81 81 81 81 80 79 77 75 74 72 71 70 69 67 67 66 66 66 66 65 66 67 67 68 68
105 107 107 103 101 100 100 103 104 103 103 101 99 100 99 95 93 93 93 95 95 93 93 93 93 96 99 98 94 91 89 87 85 82 80 77 75 74 73 72 72 72 72 73 74 73 73 72 71 70 69 69 69 69 68 68 67 66 66 64 64 64 64 64 65 65 65 66 66 66 66 66 66 66 66 66 66 66 66 67 68 69 71 72 73 74 75
109 110 112 110 107 105 105 107 106 102 101 101 102 103 104 102 100 99 98 100 100 97 94 92 90 90 91 90 88 86 84 82 81 80 79 78 76 75 74 73 72 71 71 72 72 71 71 71 70 69 68 67 67 67 66 66 65 64 63 62 61 60 60 60 61 61 61 62 63 64 65 66 66 68 69 69 70 71 73 75 76 77 78 79 79 78 78
112 109 110 109 105 102 102 102 103 102 101 102 102 102 102 102 101 100 100 100 99 100 99 97 94 92 91 90 89 89 89 90 90 89 87 84 81 79 78 76 75 74 73 72 72 71 72 72 73 73 72 71 71 71 70 70 70 69 69 68 67 65 64 64 63 63 64 65 66 67 69 70 71 73 73 73 74 74 74 75 75 75 74 73 71 70 69
111 106 102 101 98 99 100 100 100 101 101 102 103 103 102 102 101 102 102 101 100 100 100 100 99 97 96 96 96 95 94 94 92 90 87 85 83 81 80 78 77 76 76 76 75 75 75 74 73 72 71 69 69 69 68 68 69 69 69 69 69 67 66 66 65 64 63 63 62 61 61 61 60 60 59 58 57 56 56 56 56 56 56 56 56 56 56
101 98 97 97 96 96 97 98 99 101 102 103 104 104 103 104 104 101 99 97 96 95 95 96 97 97 97 96 95 94 94 93 92 90 88 86 84 83 81 80 79 78 76 73 71 67 63 60 58 55 54 53 52 51 51 50 50 51 51 50 50 50 49 48 46 45 45 44 43 42 42 41 40 39 40 40 40 41 42 43 44 45 46 48 50 52 53
92 94 99 104 103 99 98 100 100 101 102 103 104 104 103 102 98 95 93 94 96 98 98 96 95 95 95 97 99 99 98 94 91 87 84 83 81 79 76 73 69 66 62 57 54 51 48 46 45 45 44 45 44 43 43 42 41 41 40 39 38 37 35 34 34 35 36 36 37 37 37 37 37 36 37 38 39 40 41 41 42 44 44 46 47 49 51
94 94 98 104 108 106 103 101 100 100 102 102 101 102 102 99 96 97 100 101 100 100 101 103 104 103 102 103 101 96 92 88 85 83 82 79 74 69 64 59 54 51 49 46 44 42 41 40 39 39 39 39 39 39 39 38 38 37 36 35 34 33 31 31 31 31 31 31 31 32 31 31 31 31 32 32 33 34 35 36 36 37 37 38 40 41 43
100 101 99 101 108 112 110 106 104 104 105 104 104 106 107 105 103 104 105 104 102 103 107 111 110 105 100 96 92 89 88 87 84 80 75 68 62 57 52 48 45 41 39 37 35 33 32 32 31 31 31 31 31 31 31 31 31 31 30 30 28 27 27 27 27 27 26 27 27 27 27 27 27 28 28 29 30 30 31 31 31 32 32 33 33 34 35
103 109 107 104 106 109 110 108 107 107 107 106 106 108 108 107 106 106 106 107 110 111 109 104 98 94 92 92 92 91 88 83 76 70 64 58 52 47 42 39 36 34 32 32 31 30 30 30 29 30 30 30 30 30 30 30 30 30 30 30 28 27 27 28 27 26 26 26 25 25 25 25 26 27 27 28 28 29 29 30 30 31 32 32 32 33 33
97 107 112 112 109 107 106 106 104 105 106 106 104 103 103 105 108 111 111 111 112 108 100 93 91 92 93 93 92 87 81 75 68 62 55 48 43 39 37 36 35 34 34 34 33 33 33 33 33 33 33 33 33 33 33 33 33 33 33 33 31 29 28 29 28 27 27 26 26 26 27 27 27 28 29 29 29 29 30 31 31 31 32 33 33 34 34
93 99 108 114 114 107 104 104 102 102 105 106 105 103 102 105 111 114 112 109 104 98 93 92 94 95 95 93 89 83 76 70 62 53 46 43 40 39 38 37 37 37 36 35 35 36 36 36 36 36 35 35 35 35 35 35 35 34 34 33 32 30 29 29 29 29 29 29 28 28 29 29 29 30 30 30 30 31 31 32 32 33 33 34 35 36 36
97 98 104 113 115 107 100 100 102 103 106 108 107 104 103 107 113 113 109 103 97 92 93 97 100 100 97 92 88 81 73 64 55 47 44 43 42 40 39 39 39 38 37 37 38 38 38 38 38 37 37 36 36 36 35 35 35 34 34 33 32 31 30 29 30 30 31 32 32 32 32 32 33 33 34 33 34 35 35 35 36 37 37 38 39 40 41
106 106 106 111 116 113 109 108 109 109 108 108 106 104 105 110 112 109 104 98 92 92 98 104 104 101 97 94 90 83 71 58 50 46 46 44 42 41 40 40 40 39 39 40 39 38 39 40 40 40 39 40 40 39 38 38 38 38 37 36 35 34 33 33 34 34 35 36 37 37 37 38 38 38 39 39 39 40 41 42 42 43 44 45 46 47 48
108 110 106 106 111 115 116 115 115 113 112 110 108 106 107 107 106 104 100 94 91 96 104 107 104 101 99 99 94 82 67 56 52 50 49 47 46 44 42 40 41 41 41 41 41 40 41 42 42 40 41 43 44 42 40 41 41 41 41 41 40 40 40 40 41 41 41 42 42 42 43 44 44 45 45 46 47 48 49 49 50 50 51 51 52 52 52
102 109 108 106 107 110 111 112 112 111 109 109 108 104 102 102 103 104 100 94 94 101 105 103 100 99 100 100 93 76 63 58 58 56 54 52 50 48 46 44 43 42 42 43 45 46 46 46 45 44 44 46 46 44 43 43 44 44 44 43 43 43 43 44 44 45 45 45 46 47 48 49 50 50 50 50 51 52 52 53 53 53 52 52 52 52 52
90 100 106 106 107 108 107 105 104 104 104 106 105 100 97 101 107 108 102 96 98 103 101 97 96 99 102 101 89 71 61 62 63 61 59 57 55 52 50 48 47 46 45 46 47 47 46 46 46 46 46 45 45 45 45 45 45 44 44 44 43 43 44 44 45 46 47 49 50 51 52 52 52 52 52 52 53 53 53 53 53 53 53 53 53 54 54
78 88 97 101 102 101 100 98 99 100 102 103 101 98 97 103 110 110 103 99 101 101 96 93 96 100 105 102 86 66 60 64 66 64 63 61 59 57 56 54 53 52 51 50 49 49 50 49 49 49 49 49 49 49 50 50 49 49 48 48 49 49 49 49 49 49 50 51 52 52 52 53 54 54 54 54 54 54 55 54 54 55 55 56 56 57 58
72 80 89 95 97 95 95 96 98 100 100 100 98 99 103 109 114 111 105 104 104 100 93 93 97 102 105 100 83 65 61 65 66 65 65 64 62 61 60 59 58 57 56 55 55 55 55 55 54 54 54 54 54 53 53 53 53 53 53 54 54 55 55 54 54 55 55 56 57 57 58 59 59 59 58 58 58 58 58 58 59 60 61 61 61 61 60
70 76 82 89 95 97 98 100 101 101 100 99 98 101 106 112 115 112 108 107 107 100 92 93 99 104 105 98 82 67 65 68 67 65 65 65 63 62 62 61 60 59 58 57 57 56 56 56 55 55 55 55 55 54 54 54 54 54 54 55 55 55 55 54 54 54 55 56 57 58 59 60 60 60 60 61 62 63 63 66 68 70 70 70 69 67 66
72 79 83 87 94 99 102 105 104 102 101 100 100 104 110 115 116 113 109 108 105 99 95 97 101 104 104 98 82 68 65 68 68 66 65 64 62 60 59 58 58 57 56 55 55 54 55 55 54 54 55 55 55 55 55 55 55 55 55 56 57 56 56 55 55 55 55 56 57 58 59 59 60 60 61 62 63 66 68 72 74 76 76 76 75 74 72
73 83 88 92 97 101 103 104 104 103 102 101 101 102 107 111 113 112 110 106 101 96 93 94 97 100 103 98 83 68 64 68 69 68 66 63 60 57 54 54 53 53 53 54 53 53 53 53 53 53 53 54 54 55 55 55 56 56 56 56 57 57 57 57 57 57 57 58 59 59 60 61 61 62 63 65 66 69 71 73 75 76 77 78 77 76 75
71 81 90 98 103 104 104 106 106 104 102 101 100 101 103 106 107 105 102 98 94 90 88 89 93 100 106 103 87 71 66 69 72 70 66 62 58 54 52 51 52 51 52 53 54 54 53 52 52 52 53 53 54 55 56 56 57 57 57 57 57 57 58 58 58 58 58 58 58 59 60 62 65 68 71 73 75 75 75 75 74 74 75 76 76 76 75
68 78 91 103 109 109 110 110 108 104 102 100 100 102 103 103 102 99 98 98 98 98 96 96 98 103 109 106 92 74 66 70 74 73 67 62 57 54 52 52 52 52 52 52 54 55 54 53 53 53 54 54 54 55 55 56 56 57 57 57 57 57 58 58 58 59 58 59 59 61 63 66 70 74 78 81 83 84 82 80 78 76 74 74 73 73 74
64 76 89 102 108 110 110 108 104 101 100 101 102 104 104 103 102 103 103 105 107 107 105 105 106 107 109 109 98 79 68 69 73 72 68 63 59 57 54 52 52 53 53 53 53 54 53 53 54 54 54 55 56 55 56 57 57 57 58 59 59 59 60 60 60 60 60 61 62 64 67 71 75 79 82 84 86 86 84 83 81 79 76 74 73 74 76
58 71 85 97 104 106 106 103 101 100 100 101 104 108 107 104 105 108 108 106 105 104 104 107 110 109 110 111 103 86 72 71 73 72 68 64 61 60 58 55 53 54 55 56 56 57 55 54 55 56 56 57 57 57 57 58 59 59 60 61 61 62 62 62 62 62 63 63 65 68 71 75 78 81 82 83 83 83 82 82 81 79 78 77 76 77 79
52 66 82 95 103 104 103 100 100 100 101 101 104 107 105 103 105 108 106 103 103 102 101 103 107 108 109 110 105 90 76 72 74 73 68 64 61 61 63 62 58 56 56 57 59 61 60 58 58 58 59 59 59 59 59 59 60 60 61 62 63 64 64 64 65 65 65 66 69 72 76 79 81 82 83 83 82 82 81 81 81 81 81 80 80 81 83
48 61 76 93 103 104 102 102 101 101 102 103 103 102 101 102 106 107 106 104 102 99 96 96 100 104 106 108 106 93 78 72 75 75 70 64 61 62 65 68 66 61 58 58 60 61 63 62 61 60 61 62 62 62 61 61 60 61 62 63 64 66 66 67 67 66 66 68 72 77 81 83 84 84 83 82 82 82 82 82 83 84 85 85 85 85 86
43 56 69 85 97 101 102 103 104 103 102 102 101 100 102 105 107 107 107 105 100 93 89 90 95 100 103 105 104 94 78 70 73 75 71 65 62 61 65 70 72 66 61 61 62 63 64 65 64 63 63 64 64 64 64 62 61 61 62 64 65 67 68 69 69 69 68 70 75 81 85 86 86 84 82 80 80 81 82 84 85 87 87 88 88 88 88
37 51 64 76 87 95 101 103 103 103 101 100 100 103 108 111 108 105 104 104 100 95 92 91 94 98 101 102 102 94 79 68 68 72 71 66 61 60 64 73 76 72 67 66 67 68 67 67 66 65 65 65 66 66 66 65 63 62 62 64 66 68 69 71 71 70 70 72 78 84 88 88 86 84 82 80 80 82 84 86 88 88 88 88 88 88 88
32 46 59 68 78 90 100 104 103 102 102 100 100 105 110 111 106 101 100 101 102 101 98 94 91 94 98 101 100 96 85 73 69 71 71 65 60 61 68 76 79 76 72 70 71 71 71 71 70 68 67 66 66 66 66 67 66 64 63 64 67 69 71 73 73 72 71 74 80 87 90 90 88 87 85 84 85 86 87 89 90 90 89 89 89 89 88
Wind_Speed
6 8 10 12 13 15 16 16 17 18 19 19 20 20 21 22 23 23 24 25 27 29 31 34 37 39 42 44 47 50 52 55 57 57 57 55 52 49 47 46 45 45 45 45 46 45 45 46 47 49 50 51 53 54 53 53 52 52 52 53 52 52 51 50 50 49 50 50 51 52 52 51 51 51 50 50 50 49 49 49 50 50 49 49 50 51 51
3 5 7 9 10 11 12 13 15 16 16 17 18 19 19 21 22 23 25 26 28 30 32 34 36 38 40 42 44 47 50 53 55 56 56 54 51 49 46 45 44 44 45 45 44 44 44 45 46 47 49 50 51 52 52 51 51 52 52 52 53 53 52 52 52 52 52 51 51 50 50 50 50 50 50 50 50 50 51 51 50 50 49 49 50 51 52
2 4 6 8 9 10 11 12 13 14 15 16 18 19 20 21 22 24 26 28 29 30 32 33 35 37 39 41 43 45 48 50 52 53 53 52 51 49 47 46 45 45 45 45 46 45 46 46 46 47 48 49 50 50 51 51 52 52 53 53 54 54 54 54 54 53 52 51 50 50 50 49 49 49 49 50 51 52 52 52 51 51 50 51 52 53 54
3 5 6 8 9 10 11 12 13 14 16 17 19 20 22 24 25 26 27 29 30 31 33 34 35 37 39 41 43 44 45 46 47 47 48 48 48 47 47 46 46 46 46 46 47 47 47 48 47 47 48 49 49 50 50 51 52 53 53 54 54 55 55 55 55 54 54 53 52 52 52 52 52 51 51 52 53 53 53 54 53 52 52 53 53 54 55
4 6 7 9 11 13 14 15 16 16 17 18 20 23 24 26 28 29 30 30 30 31 32 33 35 37 39 40 40 40 41 42 43 42 42 43 42 42 43 44 44 45 45 45 46 47 47 47 48 48 49 48 49 50 50 51 52 53 54 55 55 55 55 55 55 54 54 53 53 53 53 54 54 54 54 54 54 54 54 55 54 53 53 54 55 56 56
7 9 11 13 15 17 18 19 19 19 20 19 20 24 26 27 28 29 30 31 31 32 33 33 34 35 36 36 37 37 37 38 40 39 40 42 42 39 39 41 41 42 43 43 44 44 45 45 45 46 47 47 47 48 49 51 52 53 54 54 54 54 54 54 54 53 52 52 53 53 53 54 55 55 54 54 53 53 54 54 54 53 54 55 56 56 57
11 13 15 17 19 19 20 21 21 21 22 22 21 24 27 28 29 30 32 34 34 34 34 34 35 35 36 38 40 40 38 38 38 38 38 40 42 42 40 41 41 40 42 43 42 41 42 42 41 41 43 44 44 45 46 48 49 50 52 53 53 53 53 52 52 52 52 52 53 53 54 54 55 54 54 53 53 53 53 53 53 53 54 55 56 57 58
14 17 19 20 20 21 21 22 22 23 24 23 22 23 26 31 33 34 35 35 34 34 35 39 42 43 43 43 45 45 44 43 42 41 40 39 40 43 43 41 41 40 40 41 42 43 42 42 40 39 40 40 40 41 43 45 47 47 48 49 50 51 51 51 51 52 53 53 54 54 54 54 53 53 52 52 52 53 53 53 53 53 54 56 57 57 59
17 20 21 22 22 23 23 24 24 25 26 25 23 23 27 34 37 37 37 37 37 39 42 46 48 49 48 49 50 50 48 48 46 44 43 43 42 42 42 41 40 39 38 37 38 40 41 40 40 40 40 39 39 40 42 44 46 47 47 47 48 49 50 50 51 53 54 54 54 54 54 54 53 52 51 51 52 52 53 53 53 54 55 56 57 58 59
19 21 22 23 25 25 26 26 27 28 28 27 26 26 30 35 39 40 41 40 41 43 47 50 52 52 52 52 53 52 50 49 48 47 46 45 44 43 42 41 40 39 38 37 36 37 38 38 38 39 41 43 44 44 45 46 46 47 47 47 48 48 49 49 51 52 53 53 53 54 54 53 52 52 52 52 53 53 53 53 54 54 56 57 58 59 60
20 22 23 25 27 27 28 29 30 30 29 28 28 29 32 37 40 41 42 43 44 46 49 52 54 53 52 53 54 53 52 50 48 47 47 46 45 45 44 44 43 42 41 40 39 38 38 39 39 39 41 43 44 44 45 46 46 46 46 47 48 48 48 48 49 50 50 51 52 53 53 52 51 52 53 54 54 54 54 54 55 55 56 57 58 59 60
21 23 25 27 29 30 31 31 31 31 30 29 30 32 35 38 41 42 43 44 45 48 50 52 53 53 52 51 51 51 51 49 47 45 44 44 44 44 43 43 43 42 42 41 40 39 39 39 40 40 40 40 39 40 41 42 43 44 44 45 47 47 48 48 49 49 50 51 52 52 52 52 53 54 55 55 55 56 56 56 56 56 57 58 59 59 60
23 25 28 30 31 32 33 33 32 32 31 31 32 34 36 38 40 41 43 44 44 46 49 51 51 51 49 48 47 46 46 46 44 42 41 41 40 40 40 39 39 39 39 39 39 38 38 39 39 39 39 38 38 38 39 39 40 41 42 44 45 45 46 47 48 48 49 51 52 52 53 54 55 56 56 56 56 56 57 57 57 58 58 59 60 61 62
26 28 31 33 34 34 34 34 33 33 32 32 32 34 35 36 38 39 40 42 43 43 45 46 46 45 44 42 42 41 41 41 41 40 40 40 39 39 39 38 37 37 36 36 36 36 36 36 36 36 36 36 37 38 38 39 40 40 41 42 43 44 45 46 47 49 50 52 53 53 54 55 56 57 58 57 57 57 57 58 59 59 60 61 62 62 63
28 30 32 34 35 35 35 34 33 33 33 32 33 34 35 36 37 37 37 39 40 39 39 39 39 39 38 37 37 37 37 38 38 38 38 38 38 38 37 37 37 37 36 36 36 35 35 34 34 35 35 36 37 38 39 40 40 41 42 43 44 46 47 48 49 50 51 53 54 54 55 56 57 58 58 57 58 58 59 60 60 60 62 63 63 64 64
28 31 33 34 35 35 35 34 33 34 33 32 32 34 35 36 36 37 37 38 38 37 35 35 34 34 34 34 34 34 34 34 34 35 35 35 35 35 36 36 37 37 37 37 37 36 36 36 36 36 37 37 38 38 40 41 42 43 44 44 46 47 48 49 50 50 51 53 54 55 55 57 58 58 58 58 59 60 61 61 62 63 64 65 65 66 66
28 31 33 34 34 34 34 34 33 33 33 31 30 31 33 35 36 36 37 37 36 35 34 33 33 32 32 32 32 32 32 32 32 32 32 32 33 33 33 33 34 34 35 36 36 37 37 37 37 37 37 37 38 38 39 41 42 43 44 45 46 47 48 49 50 51 52 53 54 56 57 58 59 60 60 61 62 63 63 63 64 65 66 67 67 68 68
27 30 33 33 34 34 34 33 33 33 32 30 29 30 32 33 34 34 34 33 32 30 30 29 29 29 29 29 29 29 29 29 29 30 30 30 31 31 31 31 31 31 32 33 34 35 35 36 36 36 36 37 37 38 39 40 41 43 44 45 47 48 49 50 51 52 53 54 56 57 58 60 61 62 63 63 64 65 65 65 66 67 68 69 69 70 70
26 28 31 33 34 34 34 33 33 33 32 30 30 30 30 30 30 29 28 27 27 26 25 25 25 25 26 26 26 26 27 27 28 28 29 29 30 30 30 30 30 31 31 32 33 34 35 35 36 36 37 37 38 39 40 41 42 43 44 46 47 48 50 51 52 53 55 56 58 59 61 62 63 64 64 65 65 66 67 67 68 69 70 71 71 72 72
26 27 29 32 33 34 35 35 34 34 33 31 29 28 27 27 26 26 26 25 25 25 24 24 23 23 23 23 24 25 25 25 25 26 26 27 28 28 29 29 30 30 30 31 32 33 34 35 36 37 38 39 40 41 42 43 44 45 46 47 49 50 51 52 54 55 56 58 60 61 63 64 64 65 65 66 66 67 68 68 69 70 71 72 72 73 73
25 25 26 28 30 31 32 32 32 32 31 30 28 27 27 27 27 27 26 26 25 25 25 24 24 22 22 21 21 21 21 21 21 22 22 23 24 25 26 27 28 28 29 30 31 33 34 35 37 38 39 41 42 43 44 46 47 48 50 51 52 53 54 56 57 58 59 60 62 63 64 65 65 66 66 67 68 68 69 70 71 71 72 72 72 73 73
25 24 24 25 25 26 27 27 27 28 28 29 28 28 27 28 28 27 26 25 25 24 23 22 22 21 21 20 20 19 19 19 19 20 21 22 23 24 25 26 27 28 29 30 31 33 34 35 37 38 39 41 42 44 45 47 49 51 52 53 55 56 58 59 60 60 61 62 63 64 65 65 66 66 67 67 67 68 68 68 69 69 68 68 68 68 68
26 26 26 25 25 25 26 26 26 26 26 27 27 26 25 25 25 24 24 23 22 21 21 21 20 20 20 20 19 19 19 20 20 21 22 23 24 25 26 27 28 29 30 31 32 34 35 36 37 39 40 41 43 44 46 47 49 50 51 53 54 56 57 57 58 59 60 61 62 62 63 63 62 63 63 63 63 63 63 63 63 63 63 63 63 64 64
27 28 28 28 27 27 27 27 26 26 25 25 25 25 24 24 24 23 23 22 21 21 20 20 20 20 20 20 20 20 20 21 21 22 23 24 25 26 27 27 28 29 30 31 32 33 34 36 37 39 40 42 43 44 45 47 48 49 50 51 52 53 53 54 55 56 56 57 57 58 58 58 58 58 58 59 59 59 59 59 60 60 60 61 61 61 61
29 30 31 31 30 29 28 28 27 26 26 25 24 24 24 24 23 23 22 22 21 21 20 20 20 20 20 21 21 21 21 22 23 24 25 25 26 26 27 27 27 28 29 30 31 32 33 34 36 37 39 40 41 43 44 45 46 47 48 49 49 50 51 51 52 52 52 53 54 54 54 55 55 55 56 56 56 56 57 57 58 58 58 59 59 59 58
31 32 33 33 33 32 31 29 28 27 26 25 25 24 24 24 23 23 22 22 21 21 21 21 21 21 21 21 21 21 22 23 24 25 25 25 25 26 26 27 27 28 29 29 30 31 33 34 35 36 38 38 39 41 42 43 44 45 46 47 48 48 49 49 49 50 50 50 51 52 52 52 53 53 54 54 54 54 55 55 55 55 55 55 55 55 55
30 31 31 31 31 31 30 29 28 27 26 25 25 24 24 24 23 23 22 21 21 21 21 21 21 21 21 21 21 21 22 23 23 23 24 24 25 25 26 27 28 28 29 30 30 31 32 33 33 34 35 35 36 37 38 40 41 42 43 44 45 45 46 46 46 45 46 46 47 47 47 48 48 48 48 49 49 49 50 50 50 51 51 51 51 51 51
29 30 30 30 30 29 29 28 27 27 26 25 25 24 24 24 23 22 21 21 21 21 20 20 20 20 20 20 20 20 21 22 22 23 23 24 24 25 25 26 27 27 28 28 28 29 29 30 30 30 31 32 33 34 35 35 36 37 38 38 39 40 40 40 39 39 40 41 42 42 43 44 44 44 44 45 45 46 46 47 47 47 48 48 48 48 49
28 30 31 31 31 30 30 29 28 27 27 26 26 25 24 23 22 20 19 19 19 19 18 18 18 18 18 19 19 20 21 21 21 22 22 23 23 23 24 24 24 24 24 25 25 25 26 26 27 27 28 29 30 31 31 32 33 33 34 35 35 35 35 34 35 36 37 38 39 40 41 42 42 42 42 43 43 44 45 45 46 46 46 46 46 47 47
28 30 31 31 31 31 30 30 29 28 27 26 25 24 23 22 20 19 18 18 17 17 16 16 17 17 17 18 18 19 19 19 20 20 21 21 20 20 20 20 20 21 21 21 21 21 22 22 23 24 24 25 26 27 27 28 29 29 30 31 31 30 30 30 31 32 33 34 36 37 37 38 38 39 39 40 41 41 42 43 43 43 43 44 44 44 45
27 30 32 32 32 31 31 30 29 28 26 25 24 23 22 20 19 18 17 17 16 15 15 16 16 17 17 17 17 17 17 18 18 18 17 17 17 16 16 16 16 17 17 17 17 18 18 18 19 20 20 21 22 22 23 24 24 25 25 26 26 26 25 26 27 28 29 30 31 32 32 33 34 34 35 36 37 37 38 39 39 39 40 40 40 41 41
27 29 32 32 32 31 31 30 29 27 26 24 24 23 21 19 18 17 17 16 15 15 15 15 16 16 15 15 15 15 15 15 15 14 14 13 13 13 13 13 13 13 14 14 14 15 15 16 16 17 18 18 19 19 19 20 20 21 21 22 22 22 22 22 23 24 25 25 26 26 27 28 28 29 30 30 31 32 32 33 33 34 34 35 35 35 36
26 28 30 31 31 31 30 30 29 27 25 24 24 22 20 18 18 17 17 16 15 15 14 14 14 14 14 14 14 13 13 13 12 11 11 10 10 10 10 10 10 10 10 11 10 11 12 13 13 14 15 15 15 16 16 16 17 17 17 18 18 18 17 18 18 19 19 20 20 21 21 22 22 23 23 24 24 25 25 25 26 26 27 27 28 28 28
27 27 29 30 30 30 30 29 28 27 25 24 24 22 20 19 18 18 17 16 15 14 13 13 12 12 13 12 12 12 12 11 10 9 8 7 7 7 7 7 7 7 7 7 7 8 9 9 9 10 11 11 12 12 12 12 12 12 12 12 12 12 12 12 12 13 13 13 14 14 15 15 16 16 16 16 17 17 18 18 18 19 19 20 20 21 21
29 29 30 31 31 31 31 29 28 27 26 25 24 22 21 20 19 18 17 16 15 14 12 12 11 11 11 10 10 11 11 10 8 7 6 5 5 4 4 4 4 4 4 4 6 7 7 6 6 8 8 8 7 8 9 9 8 8 8 8 8 7 7 6 6 7 7 7 8 9 9 9 10 10 10 11 11 11 11 12 12 13 13 14 14 15 15
32 32 32 32 32 32 31 30 29 27 27 26 25 23 21 20 18 17 17 16 15 14 13 12 11 11 10 9 9 10 10 9 8 7 5 4 3 3 2 2 2 2 3 3 4 4 5 4 4 6 7 6 5 6 7 7 7 6 6 5 5 5 5 6 6 6 6 6 6 7 6 6 6 6 6 6 6 6 7 7 8 9 9 10 11 11 12
34 34 34 33 33 33 32 31 29 29 28 27 25 23 21 19 18 17 17 16 15 14 13 13 12 11 9 9 9 9 8 7 7 6 5 4 3 2 1 1 1 2 3 4 4 4 5 5 5 5 6 6 6 6 6 6 6 5 5 5 5 5 6 6 6 7 7 7 7 7 7 6 6 6 6 6 6 6 7 7 7 8 9 9 10 10 11
34 35 35 34 34 33 32 31 30 29 28 27 25 23 21 19 18 18 18 17 16 15 14 13 12 11 10 9 9 9 8 7 7 6 5 4 3 2 1 1 2 3 3 5 5 6 6 6 6 6 7 7 6 6 6 5 5 5 5 5 5 5 5 5 5 6 6 6 6 6 6 6 6 5 5 6 6 6 6 6 7 7 7 8 8 9 9
32 35 35 35 34 34 33 32 31 30 28 27 25 23 21 19 18 18 18 17 16 16 15 13 12 12 11 10 10 10 9 8 7 6 4 3 2 1 1 2 3 4 4 5 6 6 6 6 7 7 7 7 7 7 7 6 6 6 5 5 5 5 5 5 5 5 5 5 5 5 5 5 4 5 5 5 6 6 6 6 6 5 6 6 7 8 9
31 33 35 35 34 34 33 32 31 30 28 26 24 23 21 20 19 19 19 18 17 17 15 13 13 13 12 11 10 10 9 9 8 7 6 5 4 4 4 3 4 5 5 6 7 8 8 8 8 9 9 8 8 8 8 8 7 7 7 6 6 6 5 5 5 5 5 4 3 3 3 3 4 5 5 5 5 5 5 4 4 5 6 7 8 9 10
30 32 33 33 33 33 32 32 31 29 28 26 24 23 21 21 21 21 20 19 18 17 15 14 14 14 14 12 10 10 10 10 10 9 8 8 7 6 6 6 6 6 6 7 8 8 8 9 9 9 8 8 8 7 7 7 7 6 6 6 5 5 4 4 4 4 4 3 2 2 1 0 1 2 3 3 3 3 3 4 5 6 8 9 10 11 11
30 31 32 32 33 32 32 31 31 30 28 26 24 23 23 23 23 22 21 20 19 18 16 15 15 16 15 14 12 12 12 12 11 10 10 9 8 8 8 7 7 7 7 7 7 8 8 8 8 8 7 7 6 6 6 6 5 5 5 5 4 4 4 4 3 3 3 3 3 3 3 3 3 4 4 4 4 5 6 7 8 9 10 11 12 13 13
31 32 33 32 32 32 32 31 31 29 28 26 25 25 25 25 25 24 23 21 20 18 17 16 16 17 16 15 13 13 13 13 12 11 10 10 9 9 9 8 8 8 7 7 6 7 7 7 7 6 6 6 6 5 5 5 5 4 4 4 4 4 4 4 4 4 4 4 4 5 5 5 6 6 6 7 8 8 9 10 11 12 12 13 14 14 14
31 33 33 33 33 32 31 31 30 29 28 28 28 28 28 28 26 25 22 20 19 18 17 16 16 17 17 16 15 14 14 14 13 12 11 11 10 10 9 9 8 7 7 7 6 6 5 5 5 5 5 5 5 4 4 4 4 4 4 4 4 4 5 5 5 5 6 6 6 6 7 7 7 8 8 9 10 11 12 13 13 14 14 14 15 15 15
32 33 34 34 34 33 32 32 31 31 31 30 30 30 29 28 26 23 21 19 18 17 17 17 17 19 18 17 16 16 16 16 15 13 12 11 11 10 9 9 8 7 7 7 7 6 5 4 4 4 3 3 3 3 3 3 4 4 4 5 6 6 7 7 7 8 8 8 8 8 9 9 9 9 10 10 11 12 13 14 15 15 15 15 15 15 15
32 34 35 35 35 34 34 34 34 34 34 33 32 31 29 27 25 23 21 20 19 19 18 18 19 20 20 19 18 17 17 17 17 15 13 12 12 11 10 9 8 8 7 6 6 6 5 4 4 3 2 2 2 3 3 4 4 5 6 7 8 8 9 9 9 10 10 10 10 10 10 10 10 11 11 12 13 14 15 15 16 16 16 16 15 15 15
32 34 35 36 36 36 36 36 36 36 35 33 32 30 29 27 26 25 23 23 22 22 21 21 23 24 23 21 20 18 19 19 18 17 16 15 14 12 11 10 9 8 7 6 5 4 4 3 2 1 1 1 2 3 4 5 5 6 7 8 9 10 10 10 11 11 11 11 11 11 11 12 12 12 13 14 15 15 16 16 16 16 16 16 15 15 15
32 34 36 37 37 38 39 39 38 36 35 34 32 30 29 28 28 27 26 26 25 25 24 24 25 26 26 24 22 21 21 21 20 19 18 17 16 14 13 12 11 10 9 8 6 5 4 3 2 1 1 2 3 4 5 6 7 8 8 9 10 11 11 12 12 12 13 13 13 13 13 13 14 14 15 15 16 16 16 16 16 16 16 16 16 16 16
32 34 37 39 40 41 41 40 39 38 36 35 33 31 30 30 30 30 30 30 29 28 26 26 26 28 28 26 24 23 23 23 23 22 21 20 18 16 15 14 13 12 10 9 8 7 6 5 5 4 4 4 5 6 6 7 8 9 10 11 12 12 13 13 13 13 14 14 14 15 15 15 15 15 16 16 16 16 16 16 15 16 16 16 16 16 16
32 35 37 40 41 42 41 41 40 38 37 35 34 34 33 33 34 34 33 32 31 29 27 26 27 29 30 28 27 26 26 25 25 24 23 22 20 18 16 15 15 14 12 10 9 9 8 8 7 7 7 7 7 8 8 9 10 11 12 13 14 14 14 15 15 15 15 15 15 16 16 16 16 16 16 15 15 15 15 15 15 15 15 16 16 16 17
33 36 38 40 42 42 41 41 40 39 38 37 37 37 37 37 37 36 35 33 31 29 28 27 28 30 31 30 29 27 26 25 25 26 25 24 22 19 17 16 16 16 14 12 12 11 10 10 10 9 9 9 9 10 10 11 12 13 14 15 16 16 16 16 16 16 16 16 16 16 16 16 16 16 15 15 14 13 14 14 14 15 15 16 16 17 17
33 37 40 41 42 42 42 42 41 40 40 39 39 40 40 40 38 37 34 33 31 31 30 29 30 31 31 31 29 27 26 25 26 27 27 25 22 19 18 18 19 18 16 15 14 13 13 13 12 12 12 12 11 12 12 13 14 15 16 16 17 18 18 18 17 17 17 16 17 17 17 17 17 16 15 15 14 14 14 14 15 16 16 17 17 17 18
Wind_Direction
235 222 217 214 214 216 217 218 218 218 218 218 216 215 213 209 203 197 195 194 193 193 193 193 192 193 194 195 196 198 201 203 205 208 209 209 208 207 204 204 204 203 204 206 206 206 206 208 208 208 209 210 211 212 214 215 217 217 218 219 220 221 223 224 225 225 225 226 227 227 228 228 228 229 229 229 230 231 232 233 233 233 233 234 235 236 235
221 206 199 196 199 200 202 204 205 207 207 205 202 198 197 196 191 185 182 183 183 184 186 187 186 187 188 189 191 193 196 199 202 204 206 207 206 205 203 202 202 201 202 203 204 205 205 207 208 208 208 210 211 212 213 215 216 217 219 220 220 221 221 222 223 224 225 226 227 227 228 227 227 227 228 229 230 230 232 233 234 235 235 235 236 236 235
172 176 176 178 182 184 187 190 191 193 191 187 185 181 179 179 176 174 174 174 176 177 178 179 180 180 182 183 184 187 191 194 197 200 203 204 204 204 203 202 201 201 201 201 203 204 204 205 207 208 209 210 211 212 213 214 216 217 218 219 220 220 219 219 220 221 222 223 224 225 225 225 224 225 227 229 231 231 232 233 233 234 235 236 236 236 235
144 156 160 162 164 166 169 171 173 174 172 171 169 166 167 167 164 165 168 168 169 170 171 173 174 173 175 177 179 182 185 187 190 194 197 199 201 202 202 202 203 202 201 202 204 204 205 206 206 207 209 210 211 212 213 215 216 217 218 218 218 218 218 217 218 218 219 219 219 220 221 221 221 223 225 228 230 231 231 232 233 234 235 236 236 236 235
127 135 140 143 145 148 150 150 153 154 156 160 160 158 162 164 161 160 161 162 161 162 163 166 167 168 169 172 173 174 176 179 181 184 187 190 191 196 200 201 202 203 202 203 204 205 205 205 206 206 207 208 210 211 212 213 214 214 215 216 216 216 215 216 217 217 218 219 219 219 220 221 222 223 225 227 230 231 232 232 233 234 235 236 237 237 237
119 125 130 132 135 139 140 140 143 143 144 151 156 155 157 159 157 153 151 149 149 152 154 157 160 160 160 159 159 160 164 168 170 172 176 179 177 179 187 190 191 194 196 195 196 198 199 200 200 202 201 202 204 205 206 208 210 211 212 213 213 214 214 215 216 217 217 219 220 220 220 222 223 225 226 228 230 233 234 235 235 235 237 237 238 238 239
119 122 124 127 131 134 135 136 138 138 140 147 153 153 152 149 144 141 141 142 145 147 147 145 143 141 143 145 146 147 149 152 155 158 164 170 168 165 169 175 176 178 182 183 182 183 186 187 188 191 193 193 196 199 201 204 206 208 210 211 211 212 213 214 216 217 217 217 219 220 221 222 224 226 227 229 231 234 236 237 237 237 238 239 239 239 240
118 118 121 125 128 129 131 132 133 134 136 140 144 145 143 138 135 135 137 139 139 137 133 131 130 131 134 138 138 138 138 140 143 146 150 155 158 157 158 162 163 165 169 173 172 171 173 176 178 181 185 188 192 196 198 201 204 206 208 209 210 212 212 213 215 216 216 217 219 220 222 224 225 227 229 231 233 235 237 238 239 238 239 240 241 240 241
115 118 122 125 125 126 127 129 129 129 131 132 134 135 135 133 132 133 134 133 131 129 128 128 129 131 133 135 135 135 137 139 141 144 146 147 150 151 152 154 156 158 162 166 168 169 170 173 177 180 183 187 192 197 199 201 203 205 206 208 209 211 211 212 214 216 217 218 219 221 223 225 226 228 230 233 235 236 238 239 240 240 240 241 241 242 242
116 120 124 124 124 125 126 126 126 125 126 127 129 129 129 130 131 132 132 131 129 128 129 130 131 133 135 137 138 139 142 144 146 148 149 150 151 152 154 156 158 160 164 168 171 173 174 177 181 185 189 192 194 198 201 202 203 205 207 208 210 211 212 213 215 217 218 220 221 223 225 226 228 230 232 234 236 237 239 240 241 242 242 242 243 243 244
117 121 122 121 122 123 123 122 122 121 122 124 126 127 127 128 130 131 131 131 130 130 132 134 135 138 140 142 143 145 147 149 151 152 154 155 156 158 160 162 164 167 171 174 177 180 182 184 187 192 196 198 199 202 205 206 207 208 209 210 212 213 214 215 217 219 220 222 223 225 227 229 232 234 235 236 237 238 239 241 241 242 243 244 245 245 246
117 119 119 119 119 120 120 119 119 120 122 124 126 127 128 129 131 133 133 133 133 134 137 139 141 142 145 147 149 150 151 152 153 155 157 159 161 163 166 168 171 174 177 180 183 186 188 191 194 197 201 202 203 206 209 210 211 212 213 214 215 216 217 218 219 221 222 224 226 227 229 232 234 236 237 238 238 239 240 241 243 243 244 246 247 247 248
117 117 118 118 119 120 120 121 122 123 125 127 127 128 129 131 133 135 136 136 137 139 141 143 145 147 149 151 152 151 153 154 156 158 161 163 166 169 172 176 178 182 185 188 190 192 194 196 199 202 204 205 206 208 210 212 214 215 217 218 219 220 221 222 223 224 225 227 229 231 233 234 236 238 239 239 240 241 242 243 244 244 246 247 248 248 249
119 120 122 122 123 125 125 126 128 128 129 129 129 129 130 131 134 137 138 139 140 142 144 146 148 149 151 152 153 153 155 158 161 165 168 171 174 176 179 182 184 187 191 193 195 197 198 200 202 205 207 209 209 210 212 213 215 216 218 219 220 222 223 225 226 227 228 230 231 233 235 236 237 239 239 240 241 242 243 244 245 245 246 247 248 249 250
125 126 127 128 129 130 131 131 131 131 131 132 132 131 132 134 137 139 139 139 141 143 144 145 147 149 152 155 157 160 163 166 169 172 175 178 180 183 184 185 186 188 191 194 196 199 200 202 204 206 208 210 211 212 214 215 217 218 219 220 222 223 225 226 228 229 231 233 234 236 237 238 239 240 241 242 243 244 245 245 246 247 248 248 249 250 251
129 131 132 132 133 134 135 134 133 133 133 134 134 134 136 139 140 141 140 140 141 144 146 148 150 153 157 161 164 167 169 172 174 177 179 182 184 186 187 188 189 191 193 195 198 200 203 204 206 208 209 211 212 213 215 217 218 220 222 223 225 226 228 229 231 233 235 236 238 238 240 241 241 242 243 243 244 245 246 247 248 249 249 250 251 251 252
134 136 137 136 137 137 137 136 136 135 134 135 136 138 141 143 143 143 144 146 148 151 153 155 157 159 161 164 166 168 169 172 175 177 179 182 184 187 189 191 193 195 198 200 202 205 207 209 211 213 215 216 217 218 219 221 222 223 225 227 228 230 231 233 234 236 237 238 239 240 241 241 242 243 243 244 244 245 246 248 249 250 251 252 253 253 254
139 141 141 141 141 140 140 140 139 139 140 142 146 147 147 146 146 146 148 150 152 155 158 160 161 163 165 166 167 170 172 175 177 179 181 183 186 189 192 194 197 199 202 204 207 210 212 214 216 218 220 222 223 224 225 226 227 228 228 230 231 232 233 235 236 237 238 239 240 241 241 242 243 244 244 245 246 247 247 248 249 250 252 253 254 255 256
144 145 145 145 145 144 144 145 146 147 148 151 153 152 150 148 148 150 153 154 155 157 160 163 165 167 169 171 173 176 179 181 183 184 186 188 190 192 195 197 200 203 206 208 211 213 215 217 219 221 223 224 225 227 228 229 229 230 231 232 233 233 234 235 237 238 238 239 240 241 242 243 244 246 247 247 248 249 250 250 251 252 253 254 255 256 256
150 151 150 150 150 151 151 153 154 154 154 154 156 155 154 154 156 159 162 162 163 164 166 168 171 173 175 177 180 182 185 187 189 190 192 194 196 198 200 203 206 209 212 215 218 220 221 222 224 225 227 228 229 230 231 231 232 233 233 234 235 236 237 238 239 240 241 242 243 244 245 246 247 248 249 250 251 252 252 253 254 254 255 256 257 258 259
158 158 156 154 154 155 156 157 158 158 156 156 159 161 164 166 168 169 171 172 172 174 175 176 177 178 180 184 187 188 190 193 196 198 200 202 205 206 208 211 213 216 219 222 225 227 228 229 229 230 231 232 233 233 234 235 235 235 236 237 237 238 239 240 241 243 244 245 246 248 249 250 251 252 253 254 254 255 255 256 257 257 258 259 259 260 261
161 161 159 156 155 155 155 156 158 160 161 162 166 169 172 174 175 176 177 179 180 182 182 183 184 186 188 192 195 197 200 203 207 211 213 215 218 218 219 220 222 224 226 228 231 232 234 235 235 235 235 236 236 237 237 238 238 238 238 239 239 240 241 242 243 245 246 248 249 250 251 252 253 254 255 255 256 256 257 257 258 258 259 259 260 260 261
163 162 161 159 158 158 157 157 159 163 166 168 171 173 176 178 180 182 184 187 189 191 192 194 196 198 201 204 207 211 215 219 222 224 226 227 228 229 229 230 230 231 233 235 236 238 239 240 240 240 240 240 240 241 241 241 242 242 242 242 242 243 243 244 245 246 247 248 249 250 251 252 253 253 254 255 255 256 257 257 258 258 258 259 259 260 260
166 165 162 160 160 161 162 163 164 165 168 171 174 177 179 182 185 188 191 194 197 201 203 205 207 210 214 217 221 225 229 232 234 237 238 240 241 242 242 242 242 242 242 242 243 243 244 244 244 244 244 244 244 244 245 245 246 246 246 246 246 246 246 246 247 247 248 248 249 250 251 252 252 253 254 254 255 256 256 257 257 258 258 258 259 259 260
170 169 165 162 162 163 165 167 167 167 168 172 175 179 182 185 189 192 195 198 202 206 209 212 215 219 223 226 230 234 238 242 245 248 250 251 251 252 252 251 251 250 249 248 247 247 247 247 246 246 246 246 246 247 247 248 248 248 249 249 249 249 248 248 249 249 249 250 250 250 251 252 252 253 253 254 255 255 256 256 256 257 257 258 258 259 259
174 174 172 169 167 168 169 170 171 171 172 173 176 180 184 188 192 195 197 201 205 208 212 216 220 225 229 234 238 243 246 249 251 252 254 255 255 256 256 256 255 255 254 253 251 250 249 248 248 247 247 247 247 248 248 248 248 249 249 249 249 250 250 250 250 250 251 251 251 252 252 252 252 252 253 253 253 254 254 254 255 256 256 257 257 258 258
180 178 176 175 174 174 175 175 176 178 179 180 182 186 189 193 196 200 203 206 210 215 219 224 228 233 238 242 246 248 250 251 253 254 255 256 256 256 257 257 257 256 255 255 254 253 252 250 249 249 248 248 248 248 247 248 248 248 249 250 250 250 250 250 251 251 251 252 252 252 252 252 251 251 252 252 252 252 253 253 254 254 255 256 256 257 258
185 180 177 177 178 178 179 180 182 183 184 187 190 193 197 201 204 207 210 215 219 223 228 233 237 240 242 245 247 249 250 252 254 256 257 258 259 259 259 258 258 257 256 255 253 252 251 251 249 249 248 248 248 248 248 249 249 250 250 251 251 251 252 252 252 252 252 252 252 252 252 252 252 251 251 252 252 253 253 254 254 254 255 255 256 256 257
191 185 182 181 181 182 183 185 187 189 191 193 197 200 204 207 210 213 218 222 226 228 232 236 238 241 243 246 249 252 254 257 259 261 263 263 264 263 262 261 259 257 255 254 252 251 250 249 248 247 247 247 247 248 249 250 251 252 253 254 254 255 255 255 254 253 252 252 251 251 251 251 251 252 252 252 252 253 253 253 254 254 255 255 256 256 257
193 191 190 188 187 187 188 190 193 196 198 200 204 207 211 213 215 218 221 224 226 227 229 232 236 241 246 251 254 258 261 263 265 267 267 267 266 265 263 260 258 256 255 253 252 251 249 248 247 247 247 247 247 248 249 250 252 253 254 255 256 256 256 256 254 253 252 251 251 250 250 250 251 251 251 250 250 251 251 252 253 254 254 255 255 256 256
192 193 195 196 195 194 194 196 199 202 204 207 211 215 216 216 215 216 217 219 221 224 229 236 242 248 252 255 258 262 265 268 269 270 269 268 267 265 264 263 260 258 256 255 253 252 251 250 249 249 249 249 249 249 250 251 253 254 256 257 258 257 256 256 255 254 252 251 250 250 249 249 249 248 248 248 249 249 250 250 251 252 253 254 255 255 256
192 192 195 198 199 200 201 203 205 207 208 211 215 216 214 211 210 211 213 215 220 227 236 243 248 251 254 258 261 264 267 270 272 272 271 271 271 269 267 265 262 259 257 255 252 251 250 249 249 248 248 248 248 249 250 251 252 253 254 255 256 256 254 252 252 251 250 249 248 247 246 246 246 246 246 246 246 246 247 248 249 250 251 253 254 255 256
194 192 193 195 197 200 203 205 206 207 208 210 212 212 208 205 206 211 214 218 225 234 241 247 250 254 257 260 262 265 269 273 276 277 276 276 275 271 267 263 258 253 249 244 242 242 242 241 240 240 240 240 241 242 242 243 244 245 246 247 249 249 247 245 242 242 241 241 240 240 239 239 239 240 240 241 241 242 242 243 245 246 248 250 251 253 254
198 194 193 193 194 197 200 203 204 204 205 207 209 208 204 202 207 213 219 225 231 236 240 244 249 253 256 258 262 268 273 277 278 278 277 275 272 267 261 256 249 242 236 234 233 231 226 225 226 227 227 227 227 227 228 229 229 231 232 234 235 236 235 231 228 226 226 227 229 230 230 231 231 232 234 234 235 235 236 238 239 241 243 245 247 249 251
200 197 195 195 195 197 200 202 202 202 203 206 207 206 203 203 210 217 224 229 233 236 237 240 244 248 251 256 265 274 279 282 283 282 280 279 277 267 256 244 233 222 214 215 217 211 200 198 208 209 202 201 207 211 210 206 204 204 208 209 209 210 209 206 201 200 203 206 210 213 214 215 216 219 221 222 223 225 227 230 233 235 238 241 243 245 247
200 199 198 196 196 198 200 201 202 203 204 205 206 205 204 207 214 222 228 232 234 235 234 235 237 239 242 250 265 274 279 284 287 287 288 294 296 288 273 248 218 201 185 176 178 175 164 166 189 190 177 173 187 196 191 182 176 175 177 178 176 173 168 162 160 160 162 165 169 171 172 175 181 188 192 196 201 206 212 218 223 226 229 232 235 237 240
200 200 200 199 198 199 200 201 202 203 204 205 206 206 208 211 218 225 231 234 235 234 233 234 234 231 232 244 258 266 270 274 280 283 288 297 300 291 267 195 169 168 156 142 138 144 150 154 160 163 160 162 170 171 165 160 157 156 155 156 155 152 150 148 148 149 149 148 147 145 145 151 159 166 172 177 184 191 198 205 211 218 222 226 230 233 237
199 200 200 200 200 200 200 201 202 203 204 206 208 210 212 215 221 228 233 236 236 234 233 234 231 226 227 241 252 253 251 254 261 266 272 280 286 289 265 155 138 133 135 140 142 146 148 150 151 152 153 154 153 148 145 146 148 147 145 144 141 139 139 141 142 142 142 142 144 147 152 160 167 173 180 185 190 194 200 207 213 219 225 231 236 239 243
200 199 200 200 200 200 201 202 203 204 205 207 211 214 216 219 225 231 235 238 237 236 236 235 228 222 224 236 244 243 238 237 239 240 238 237 236 228 186 146 131 126 130 135 136 135 136 139 141 141 140 140 139 138 137 136 135 132 128 123 119 117 118 122 126 131 135 140 147 153 158 165 173 182 190 194 197 199 205 211 219 228 237 244 247 249 251
201 199 199 200 200 200 201 202 203 205 207 210 213 217 220 223 228 232 235 237 238 238 238 236 228 221 223 232 241 241 236 230 224 218 211 207 201 190 177 164 151 143 141 137 135 134 133 133 133 132 131 129 128 127 125 122 119 115 109 104 101 100 102 106 110 115 119 124 131 142 152 165 180 192 198 202 206 212 217 228 244 259 266 267 265 263 262
203 201 200 200 201 201 203 204 205 207 210 212 216 220 224 227 230 233 235 236 237 238 239 236 227 221 223 229 233 234 231 226 219 213 209 205 201 195 188 181 173 167 161 154 149 145 141 139 137 135 129 124 120 116 113 109 106 101 95 89 85 83 83 83 85 88 89 84 77 73 85 175 218 224 228 232 239 248 261 275 282 285 283 280 277 274 272
205 203 203 203 203 204 205 206 207 209 212 215 219 223 227 230 231 233 235 236 236 237 238 234 226 221 222 226 227 227 225 222 218 217 216 212 206 199 193 187 180 175 169 163 158 153 148 144 140 134 126 120 113 106 99 93 87 81 74 67 60 53 47 43 38 34 30 19 5 350 335 321 312 306 302 301 301 301 300 298 293 289 285 283 281 279 277
208 206 205 205 206 207 208 208 210 211 214 218 221 225 229 231 232 232 234 235 235 235 236 235 227 221 222 227 229 228 227 223 220 220 221 217 209 201 194 188 182 175 168 161 158 154 148 142 136 127 119 112 105 97 89 81 72 62 53 44 35 25 15 10 4 357 351 341 330 321 313 309 309 310 310 309 306 303 298 293 288 285 283 282 281 280 280
212 209 207 207 208 208 209 211 212 214 217 220 224 227 229 231 232 233 234 236 237 237 240 238 230 222 222 227 230 229 225 221 219 221 223 218 212 205 197 188 183 177 167 158 154 152 147 138 127 117 109 103 95 86 77 69 60 48 32 20 14 8 360 352 344 336 329 323 317 313 311 310 309 308 306 302 298 294 289 285 282 280 280 279 279 280 282
216 212 209 208 208 209 211 212 214 216 219 223 225 228 231 233 234 236 237 238 238 238 240 238 229 220 219 225 229 228 224 218 216 218 220 218 214 212 205 193 185 181 174 163 157 156 154 142 126 114 104 92 81 71 58 46 35 24 11 2 358 355 349 343 336 330 324 319 316 313 311 308 305 301 297 293 290 286 283 280 279 278 278 278 280 284 290
218 214 210 209 208 209 211 214 215 218 221 224 227 229 231 233 235 236 237 236 234 233 233 231 225 219 219 224 228 229 226 221 216 214 216 217 216 216 214 205 192 184 182 176 168 165 162 152 136 121 102 79 58 41 30 20 9 3 358 353 349 346 342 338 332 327 322 318 314 311 307 304 299 295 291 287 284 281 280 279 279 280 280 282 286 292 299
221 216 213 211 209 210 212 215 217 220 224 226 228 229 231 232 234 235 234 233 231 228 226 223 219 216 217 221 224 225 225 223 217 212 212 213 214 215 218 218 209 195 186 184 184 184 183 173 153 132 90 42 16 5 3 360 354 350 348 345 341 338 335 332 329 325 320 315 312 308 304 300 297 293 290 287 284 282 282 282 282 283 285 288 292 297 302
224 219 215 212 211 212 214 216 219 222 224 226 228 229 230 231 233 233 232 231 230 228 226 222 218 216 216 219 221 222 223 222 218 213 211 212 213 213 215 220 221 213 201 194 196 205 219 229 235 257 295 323 331 334 338 340 340 339 338 337 335 333 331 329 326 323 319 315 311 308 305 302 299 296 293 290 288 286 286 286 286 288 290 293 297 300 303
227 221 217 214 213 214 215 217 219 221 223 224 225 227 228 230 231 232 231 230 229 228 227 225 220 217 217 218 220 221 222 221 218 215 213 212 212 211 211 216 223 224 219 213 211 218 231 245 255 267 279 292 304 313 320 325 328 329 330 330 330 329 328 327 325 322 318 315 312 310 308 306 303 300 296 293 291 290 289 289 290 292 294 296 299 301 302
228 224 220 216 215 215 216 217 218 219 220 221 223 225 227 228 230 230 230 230 230 230 229 227 223 220 219 219 221 222 222 220 218 216 215 213 211 209 208 214 223 229 230 229 230 233 240 249 257 265 273 281 291 300 307 313 318 322 324 325 326 326 326 325 324 321 318 316 313 312 310 308 305 302 299 297 295 294 294 295 295 296 297 298 299 300 300
229 225 222 219 217 216 216 216 217 218 219 220 223 225 226 228 229 229 229 230 231 232 232 230 225 221 220 220 222 225 226 224 222 220 218 216 212 207 207 214 224 231 234 237 240 244 249 254 260 265 270 276 282 290 298 306 312 317 320 322 322 323 324 323 322 320 318 316 314 312 311 309 306 304 302 302 301 301 301 301 300 299 299 299 299 299 298
231 226 224 221 219 217 216 215 216 217 218 220 222 225 227 228 229 229 229 229 230 231 232 231 228 223 221 221 223 227 228 228 226 224 223 220 214 207 208 216 224 229 234 238 243 248 254 259 264 268 272 275 279 285 292 300 306 311 316 319 320 321 321 321 320 319 318 316 314 312 311 309 308 307 307 307 307 307 306 305 303 302 301 301 300 299 299